Language: 


Des rapports , des résumés tant et plus, au choix de chacun....


Données statistiques de la station
Quotidien Rapport Janvier 2, 2018 Unités:  Anglais    Métrique   les deux
« Précédent Jour
Suivant Jour »
Quotidien Hebdomadaire Mensuel Annuel Actuel
  Haut: Bas: Moyen:
Température: TemperatureC °F 2.2 °F 6.9 °F
Pt de rosée: DewpointC °F 1.0 °F 5.9 °F
Humidité: Humidity % 75 % 92 %
Vitesse du vent: WindSpeedKMH mph 0.0 mph 10.3 mph
Rafales: WindSpeedGustKMH mph - -
Vent:- - SW
Pression: PressurehPa in 996.2 in -
Précipitation: 1.3 in    
Historical Graphs
 
 
Données statistiques pour Janvier 2, 2018
Heure Température Point de rosée Pression Vent Vitesse du vent Refales Humidité Pluie (taux horaire)
TemperatureC °F DewpointC °F PressurehPa in Calm     Humidity % HourlyPrecipMM in
00:04 7.9 °F 5.0 °F 1005.0 in West 25.3 mph 30.9 mph 81 % 0.0 in
00:06 7.9 °F 5.0 °F 1005.0 in WSW 15.8 mph 31.4 mph 81 % 0.0 in
00:08 7.9 °F 5.0 °F 1005.0 in West 11.9 mph 31.4 mph 81 % 0.0 in
00:12 7.9 °F 5.0 °F 1005.0 in West 20.6 mph 31.4 mph 81 % 0.0 in
00:13 7.9 °F 5.0 °F 1005.0 in WSW 22.4 mph 31.4 mph 81 % 0.0 in
00:14 7.9 °F 5.0 °F 1005.0 in West 22.7 mph 31.4 mph 81 % 0.0 in
00:19 7.9 °F 5.0 °F 1005.0 in West 16.3 mph 31.4 mph 80 % 0.0 in
00:20 7.9 °F 5.0 °F 1005.0 in West 24.8 mph 31.4 mph 80 % 0.0 in
00:24 7.9 °F 5.0 °F 1005.0 in West 22.7 mph 31.4 mph 80 % 0.0 in
00:26 7.9 °F 5.0 °F 1003.9 in WSW 21.6 mph 31.4 mph 79 % 0.0 in
00:31 7.9 °F 5.0 °F 1003.9 in WSW 24.8 mph 30.9 mph 79 % 0.0 in
00:36 7.9 °F 4.0 °F 1003.9 in WSW 16.9 mph 30.9 mph 78 % 0.0 in
00:41 7.8 °F 4.0 °F 1005.0 in WSW 24.8 mph 27.7 mph 78 % 0.0 in
00:44 7.8 °F 4.0 °F 1005.0 in West 17.7 mph 25.3 mph 78 % 0.0 in
00:49 7.8 °F 4.0 °F 1005.0 in West 28.5 mph 31.7 mph 77 % 0.0 in
00:54 7.7 °F 4.0 °F 1005.0 in WNW 16.3 mph 31.7 mph 78 % 0.0 in
00:59 7.7 °F 4.0 °F 1005.0 in West 12.2 mph 28.5 mph 78 % 0.0 in
01:01 7.7 °F 4.0 °F 1005.0 in WSW 23.3 mph 26.7 mph 78 % 0.0 in
01:06 7.7 °F 4.0 °F 1005.0 in West 10.5 mph 26.7 mph 79 % 0.0 in
01:11 7.6 °F 5.0 °F 1006.0 in WSW 12.2 mph 23.8 mph 80 % 0.0 in
01:12 7.6 °F 5.0 °F 1006.0 in West 24.8 mph 24.8 mph 80 % 0.0 in
01:17 7.5 °F 5.0 °F 1006.0 in West 16.3 mph 24.8 mph 81 % 0.0 in
01:20 7.5 °F 5.0 °F 1006.0 in WSW 28.0 mph 28.0 mph 82 % 0.0 in
01:22 7.5 °F 5.0 °F 1006.0 in WSW 20.6 mph 28.0 mph 82 % 0.0 in
01:27 7.6 °F 5.0 °F 1006.0 in WSW 19.5 mph 36.4 mph 81 % 0.0 in
01:31 7.6 °F 5.0 °F 1006.0 in West 20.9 mph 36.4 mph 81 % 0.0 in
01:32 7.6 °F 5.0 °F 1006.0 in West 24.8 mph 36.4 mph 81 % 0.0 in
01:37 7.8 °F 4.0 °F 1006.0 in West 17.2 mph 25.9 mph 79 % 0.0 in
01:39 7.8 °F 4.0 °F 1006.0 in West 16.9 mph 26.2 mph 78 % 0.0 in
01:44 7.8 °F 4.0 °F 1007.0 in West 13.0 mph 29.9 mph 78 % 0.0 in
01:49 7.9 °F 4.0 °F 1007.0 in NW 13.0 mph 29.9 mph 76 % 0.0 in
01:54 7.9 °F 4.0 °F 1007.0 in West 17.2 mph 26.2 mph 76 % 0.0 in
01:55 7.9 °F 4.0 °F 1007.0 in West 17.7 mph 26.2 mph 76 % 0.0 in
01:56 7.9 °F 4.0 °F 1007.0 in West 9.7 mph 24.8 mph 76 % 0.0 in
02:01 7.9 °F 4.0 °F 1007.0 in West 9.0 mph 24.5 mph 76 % 0.0 in
02:03 7.9 °F 4.0 °F 1007.0 in WNW 24.5 mph 24.5 mph 76 % 0.0 in
02:05 7.9 °F 4.0 °F 1007.0 in West 15.4 mph 24.5 mph 76 % 0.0 in
02:10 7.9 °F 4.0 °F 1007.0 in West 7.9 mph 24.5 mph 76 % 0.0 in
02:13 7.9 °F 4.0 °F 1007.0 in WSW 9.0 mph 24.5 mph 75 % 0.0 in
02:16 7.9 °F 4.0 °F 1007.0 in West 18.3 mph 24.5 mph 75 % 0.0 in
02:21 7.9 °F 4.0 °F 1007.0 in WSW 14.0 mph 24.5 mph 75 % 0.0 in
02:23 7.9 °F 4.0 °F 1007.0 in West 15.4 mph 23.0 mph 75 % 0.0 in
02:24 7.9 °F 4.0 °F 1007.0 in WNW 17.7 mph 23.0 mph 75 % 0.0 in
02:28 7.9 °F 4.0 °F 1007.0 in West 9.3 mph 22.4 mph 75 % 0.0 in
02:33 7.9 °F 4.0 °F 1007.0 in West 11.9 mph 22.7 mph 75 % 0.0 in
02:36 7.9 °F 4.0 °F 1007.0 in West 16.6 mph 22.7 mph 75 % 0.0 in
02:37 7.8 °F 4.0 °F 1007.0 in WSW 6.1 mph 22.7 mph 75 % 0.0 in
02:41 7.8 °F 4.0 °F 1008.0 in WSW 13.7 mph 23.8 mph 76 % 0.0 in
02:46 7.7 °F 4.0 °F 1008.0 in West 9.3 mph 23.8 mph 76 % 0.0 in
02:51 7.7 °F 4.0 °F 1008.0 in West 14.0 mph 26.2 mph 76 % 0.0 in
02:56 7.7 °F 4.0 °F 1010.0 in West 10.5 mph 26.2 mph 77 % 0.0 in
02:58 7.7 °F 4.0 °F 1010.0 in West 11.9 mph 26.2 mph 77 % 0.0 in
03:03 7.7 °F 4.0 °F 1010.0 in West 14.3 mph 19.8 mph 77 % 0.0 in
03:04 7.7 °F 4.0 °F 1010.0 in South 7.9 mph 19.8 mph 77 % 0.0 in
03:09 7.7 °F 4.0 °F 1010.0 in West 12.2 mph 19.8 mph 77 % 0.0 in
03:10 7.7 °F 4.0 °F 1010.0 in SSW 6.4 mph 19.8 mph 77 % 0.0 in
03:20 7.6 °F 4.0 °F 1009.0 in West 12.2 mph 19.5 mph 78 % 0.0 in
03:23 7.6 °F 4.0 °F 1009.0 in WSW 10.5 mph 19.8 mph 78 % 0.0 in
03:28 7.5 °F 4.0 °F 1009.0 in West 9.3 mph 20.1 mph 78 % 0.0 in
03:31 7.5 °F 4.0 °F 1009.0 in WSW 4.3 mph 20.1 mph 78 % 0.0 in
03:36 7.4 °F 4.0 °F 1009.0 in West 10.5 mph 17.2 mph 78 % 0.0 in
03:37 7.3 °F 4.0 °F 1009.0 in West 9.3 mph 19.5 mph 78 % 0.0 in
03:43 7.2 °F 4.0 °F 1009.0 in West 12.6 mph 23.8 mph 79 % 0.0 in
03:44 7.2 °F 4.0 °F 1009.0 in WNW 10.5 mph 23.8 mph 79 % 0.0 in
03:50 7.1 °F 4.0 °F 1009.0 in West 10.5 mph 19.8 mph 79 % 0.0 in
03:55 6.9 °F 4.0 °F 1009.0 in West 9.7 mph 19.8 mph 80 % 0.0 in
04:00 6.8 °F 4.0 °F 1009.0 in WSW 9.0 mph 17.2 mph 80 % 0.0 in
04:02 6.7 °F 4.0 °F 1009.0 in WSW 9.0 mph 14.8 mph 80 % 0.0 in
04:07 6.7 °F 4.0 °F 1009.0 in West 6.1 mph 16.9 mph 80 % 0.0 in
04:15 6.4 °F 3.0 °F 1009.0 in West 12.2 mph 15.8 mph 81 % 0.0 in
04:20 6.2 °F 4.0 °F 1009.0 in WSW 10.8 mph 14.0 mph 82 % 0.0 in
04:22 6.2 °F 4.0 °F 1009.0 in WSW 10.5 mph 14.0 mph 82 % 0.0 in
04:34 6.0 °F 4.0 °F 1009.0 in WSW 11.9 mph 14.0 mph 84 % 0.0 in
04:44 5.8 °F 4.0 °F 1010.0 in WSW 8.7 mph 13.0 mph 85 % 0.0 in
04:49 5.7 °F 4.0 °F 1010.0 in WSW 6.4 mph 13.0 mph 85 % 0.0 in
04:51 5.7 °F 4.0 °F 1010.0 in WSW 6.9 mph 13.0 mph 85 % 0.0 in
04:55 5.6 °F 4.0 °F 1010.0 in West 12.6 mph 13.0 mph 85 % 0.0 in
05:00 5.5 °F 4.0 °F 1010.0 in WSW 1.4 mph 12.6 mph 86 % 0.0 in
05:01 5.5 °F 4.0 °F 1010.0 in WSW 7.9 mph 12.6 mph 86 % 0.0 in
05:07 5.3 °F 3.0 °F 1010.0 in West 10.5 mph 12.2 mph 86 % 0.0 in
05:12 5.3 °F 3.0 °F 1010.0 in West 10.5 mph 10.5 mph 86 % 0.0 in
05:13 5.3 °F 3.0 °F 1010.0 in West 5.8 mph 10.5 mph 86 % 0.0 in
05:18 5.3 °F 4.0 °F 1010.0 in West 9.3 mph 12.2 mph 87 % 0.0 in
05:19 5.3 °F 4.0 °F 1010.0 in WSW 4.3 mph 12.2 mph 87 % 0.0 in
05:21 5.3 °F 4.0 °F 1010.0 in West 9.7 mph 16.6 mph 87 % 0.0 in
05:28 5.4 °F 4.0 °F 1011.1 in West 10.5 mph 16.6 mph 88 % 0.0 in
05:33 5.3 °F 4.0 °F 1011.1 in West 11.1 mph 14.0 mph 88 % 0.0 in
05:38 5.2 °F 3.0 °F 1011.1 in SSW 10.5 mph 14.0 mph 88 % 0.0 in
05:42 5.1 °F 3.0 °F 1011.1 in WSW 12.2 mph 14.0 mph 88 % 0.0 in
05:44 5.1 °F 3.0 °F 1011.1 in WSW 10.1 mph 14.0 mph 88 % 0.0 in
05:47 5.1 °F 3.0 °F 1011.1 in West 9.0 mph 14.0 mph 88 % 0.0 in
05:51 5.1 °F 3.0 °F 1011.1 in WSW 9.0 mph 14.0 mph 88 % 0.0 in
05:56 5.0 °F 3.0 °F 1011.1 in Calm   14.3 mph 88 % 0.0 in
06:01 5.0 °F 3.0 °F 1011.1 in West 7.6 mph 14.3 mph 88 % 0.0 in
06:02 4.9 °F 3.0 °F 1011.1 in West 9.0 mph 14.3 mph 89 % 0.0 in
06:04 4.9 °F 3.0 °F 1011.1 in West 8.7 mph 14.3 mph 89 % 0.0 in
06:08 4.8 °F 3.0 °F 1011.1 in West 12.2 mph 13.7 mph 89 % 0.0 in
06:12 4.8 °F 3.0 °F 1011.1 in West 9.3 mph 14.0 mph 90 % 0.0 in
06:13 4.8 °F 3.0 °F 1011.1 in WSW 7.6 mph 14.0 mph 90 % 0.0 in
06:18 4.7 °F 3.0 °F 1011.1 in West 6.1 mph 12.6 mph 90 % 0.0 in
06:23 4.6 °F 3.0 °F 1011.1 in WSW 2.6 mph 12.2 mph 90 % 0.0 in
06:28 4.5 °F 3.0 °F 1010.0 in WSW 5.0 mph 10.5 mph 90 % 0.0 in
06:33 4.4 °F 3.0 °F 1010.0 in West 2.1 mph 10.5 mph 90 % 0.0 in
06:34 4.4 °F 3.0 °F 1010.0 in West 4.7 mph 9.7 mph 90 % 0.0 in
06:40 4.3 °F 3.0 °F 1010.0 in WSW 7.9 mph 9.7 mph 90 % 0.0 in
06:41 4.3 °F 3.0 °F 1010.0 in West 5.0 mph 10.1 mph 90 % 0.0 in
06:46 4.3 °F 3.0 °F 1010.0 in West 10.1 mph 12.2 mph 91 % 0.0 in
06:48 4.3 °F 3.0 °F 1010.0 in West 10.1 mph 12.2 mph 91 % 0.0 in
06:53 4.3 °F 3.0 °F 1010.0 in West 10.5 mph 12.2 mph 92 % 0.0 in
06:58 4.2 °F 3.0 °F 1010.0 in West 9.3 mph 12.2 mph 92 % 0.0 in
06:59 4.2 °F 3.0 °F 1010.0 in West 9.3 mph 12.2 mph 92 % 0.0 in
07:04 4.1 °F 3.0 °F 1010.0 in WSW 4.3 mph 10.5 mph 93 % 0.0 in
07:05 4.1 °F 3.0 °F 1010.0 in Calm   9.7 mph 93 % 0.0 in
07:10 4.0 °F 3.0 °F 1011.1 in West 5.8 mph 9.7 mph 93 % 0.0 in
07:11 4.0 °F 3.0 °F 1011.1 in West 6.9 mph 9.7 mph 93 % 0.0 in
07:16 4.0 °F 3.0 °F 1011.1 in West 5.0 mph 7.9 mph 93 % 0.0 in
07:18 4.0 °F 3.0 °F 1011.1 in Calm   7.9 mph 93 % 0.0 in
07:23 3.8 °F 3.0 °F 1011.1 in West 6.4 mph 8.7 mph 93 % 0.0 in
07:26 3.8 °F 3.0 °F 1010.0 in West 5.5 mph 8.7 mph 93 % 0.0 in
07:35 3.6 °F 3.0 °F 1010.0 in NW 4.3 mph 6.1 mph 93 % 0.0 in
07:40 3.5 °F 3.0 °F 1010.0 in Calm   5.0 mph 93 % 0.0 in
07:41 3.4 °F 3.0 °F 1011.1 in Calm   5.0 mph 93 % 0.0 in
07:47 3.4 °F 3.0 °F 1011.1 in Calm     94 % 0.0 in
07:53 3.4 °F 3.0 °F 1011.1 in WSW 5.8 mph 5.8 mph 94 % 0.0 in
07:56 3.4 °F 3.0 °F 1012.1 in West 5.5 mph 6.9 mph 94 % 0.0 in
08:03 3.3 °F 3.0 °F 1012.1 in West 5.0 mph 7.6 mph 95 % 0.0 in
08:05 3.3 °F 3.0 °F 1012.1 in Calm   7.6 mph 95 % 0.0 in
08:09 3.3 °F 3.0 °F 1012.1 in WSW 5.5 mph 5.8 mph 95 % 0.0 in
08:14 3.3 °F 3.0 °F 1013.1 in WSW 4.3 mph 6.9 mph 95 % 0.0 in
08:15 3.3 °F 3.0 °F 1013.1 in Calm   6.9 mph 95 % 0.0 in
08:25 3.3 °F 3.0 °F 1013.1 in West 6.1 mph 6.1 mph 95 % 0.0 in
08:27 3.3 °F 3.0 °F 1013.1 in West 6.9 mph 6.9 mph 95 % 0.0 in
08:32 3.4 °F 3.0 °F 1013.1 in Calm   6.9 mph 96 % 0.0 in
08:33 3.4 °F 3.0 °F 1013.1 in Calm   6.9 mph 96 % 0.0 in
08:38 3.3 °F 3.0 °F 1013.1 in Calm   6.9 mph 96 % 0.0 in
08:43 3.1 °F 3.0 °F 1013.1 in Calm   6.9 mph 95 % 0.0 in
08:44 3.1 °F 3.0 °F 1013.1 in Calm   6.9 mph 95 % 0.0 in
08:55 2.6 °F 2.0 °F 1013.1 in Calm   1.4 mph 94 % 0.0 in
08:58 2.5 °F 2.0 °F 1013.1 in Calm   1.4 mph 94 % 0.0 in
09:00 2.4 °F 2.0 °F 1013.1 in Calm   1.4 mph 94 % 0.0 in
09:04 2.3 °F 2.0 °F 1013.1 in Calm     94 % 0.0 in
09:09 2.2 °F 1.0 °F 1013.1 in Calm     94 % 0.0 in
09:12 2.2 °F 2.0 °F 1013.1 in Calm     95 % 0.0 in
09:17 2.3 °F 2.0 °F 1013.1 in Calm     95 % 0.0 in
09:19 2.3 °F 2.0 °F 1013.1 in Calm     95 % 0.0 in
09:24 2.5 °F 3.0 °F 1013.1 in Calm   4.3 mph 96 % 0.0 in
09:29 2.7 °F 3.0 °F 1013.1 in Calm   4.3 mph 97 % 0.0 in
09:32 2.8 °F 3.0 °F 1013.1 in Calm     97 % 0.0 in
09:38 2.8 °F 3.0 °F 1013.1 in Calm     97 % 0.0 in
09:43 2.9 °F 3.0 °F 1013.1 in Calm     97 % 0.0 in
09:49 3.0 °F 3.0 °F 1013.1 in Calm     97 % 0.0 in
09:54 3.3 °F 3.0 °F 1013.1 in WSW 4.0 mph 4.0 mph 98 % 0.0 in
09:59 3.5 °F 4.0 °F 1013.1 in Calm   4.3 mph 98 % 0.0 in
10:01 3.6 °F 4.0 °F 1013.1 in WSW 1.8 mph 4.3 mph 98 % 0.0 in
10:06 3.8 °F 4.0 °F 1013.1 in Calm   4.7 mph 98 % 0.0 in
10:11 4.0 °F 4.0 °F 1013.1 in WSW 3.5 mph 9.0 mph 98 % 0.0 in
10:13 4.1 °F 4.0 °F 1013.1 in SSW 2.6 mph 9.0 mph 98 % 0.0 in
10:18 4.4 °F 4.0 °F 1013.1 in Calm   9.0 mph 98 % 0.0 in
10:21 4.5 °F 5.0 °F 1013.1 in Calm   6.1 mph 98 % 0.0 in
10:25 4.6 °F 5.0 °F 1013.1 in Calm     98 % 0.0 in
10:30 4.8 °F 5.0 °F 1013.1 in Calm     98 % 0.0 in
10:32 4.8 °F 5.0 °F 1013.1 in Calm     98 % 0.0 in
10:37 4.9 °F 5.0 °F 1013.1 in Calm   1.4 mph 98 % 0.0 in
10:38 4.9 °F 5.0 °F 1013.1 in Calm   1.4 mph 98 % 0.0 in
10:41 5.0 °F 5.0 °F 1013.1 in Calm   1.4 mph 97 % 0.0 in
10:44 5.0 °F 5.0 °F 1013.1 in Calm   2.1 mph 97 % 0.0 in
10:47 5.0 °F 5.0 °F 1013.1 in South 2.1 mph 5.8 mph 97 % 0.0 in
10:52 5.1 °F 5.0 °F 1013.1 in Calm   5.8 mph 97 % 0.0 in
10:56 5.2 °F 5.0 °F 1013.1 in Calm   5.8 mph 97 % 0.0 in
10:58 5.2 °F 5.0 °F 1013.1 in Calm     97 % 0.0 in
11:04 5.3 °F 5.0 °F 1013.1 in SW 6.4 mph 7.9 mph 97 % 0.0 in
11:08 5.4 °F 5.0 °F 1013.1 in SSW 6.4 mph 9.0 mph 97 % 0.0 in
11:09 5.4 °F 5.0 °F 1013.1 in SW 6.4 mph 9.0 mph 97 % 0.0 in
11:14 5.6 °F 6.0 °F 1013.1 in SSW 3.5 mph 9.0 mph 96 % 0.0 in
11:19 5.7 °F 6.0 °F 1013.1 in WSW 6.4 mph 9.7 mph 96 % 0.0 in
11:22 5.7 °F 6.0 °F 1013.1 in Calm   9.7 mph 96 % 0.0 in
11:31 5.8 °F 6.0 °F 1013.1 in SSW 5.5 mph 9.0 mph 95 % 0.0 in
11:36 5.9 °F 5.0 °F 1013.1 in WSW 11.9 mph 11.9 mph 94 % 0.0 in
11:38 6.0 °F 5.0 °F 1013.1 in SSW 9.0 mph 11.9 mph 93 % 0.0 in
11:39 6.0 °F 5.0 °F 1013.1 in SSW 9.3 mph 11.9 mph 93 % 0.0 in
11:44 6.0 °F 5.0 °F 1013.1 in SW 9.7 mph 11.9 mph 92 % 0.0 in
11:49 6.1 °F 5.0 °F 1013.1 in SW 6.1 mph 13.7 mph 92 % 0.0 in
11:53 6.1 °F 5.0 °F 1013.1 in SSW 9.3 mph 13.7 mph 91 % 0.0 in
11:58 6.2 °F 5.0 °F 1013.1 in SSW 11.9 mph 12.6 mph 91 % 0.0 in
12:00 6.3 °F 5.0 °F 1013.1 in SSW 9.3 mph 12.6 mph 91 % 0.0 in
12:05 6.4 °F 5.0 °F 1013.1 in Calm   12.2 mph 91 % 0.0 in
12:06 6.4 °F 5.0 °F 1013.1 in SSW 10.1 mph 12.2 mph 91 % 0.0 in
12:12 6.4 °F 5.0 °F 1012.1 in SSW 9.0 mph 10.1 mph 91 % 0.0 in
12:17 6.5 °F 6.0 °F 1012.1 in Calm   10.8 mph 91 % 0.0 in
12:18 6.5 °F 6.0 °F 1012.1 in Calm   10.8 mph 91 % 0.0 in
12:23 6.5 °F 5.0 °F 1012.1 in SSW 8.7 mph 11.9 mph 90 % 0.0 in
12:26 6.6 °F 5.0 °F 1012.1 in SSW 5.8 mph 11.9 mph 90 % 0.0 in
12:31 6.6 °F 5.0 °F 1012.1 in SSW 2.6 mph 10.5 mph 90 % 0.0 in
12:33 6.6 °F 5.0 °F 1012.1 in South 5.8 mph 10.5 mph 90 % 0.0 in
12:35 6.6 °F 5.0 °F 1012.1 in SW 7.9 mph 13.7 mph 90 % 0.0 in
12:39 6.7 °F 5.0 °F 1012.1 in South 9.0 mph 13.7 mph 90 % 0.0 in
12:44 6.6 °F 5.0 °F 1011.1 in South 5.8 mph 13.7 mph 90 % 0.0 in
12:45 6.6 °F 5.0 °F 1011.1 in SSW 6.9 mph 11.9 mph 90 % 0.0 in
12:50 6.6 °F 5.0 °F 1011.1 in South 10.1 mph 11.6 mph 90 % 0.0 in
12:55 6.6 °F 6.0 °F 1011.1 in SSW 6.9 mph 13.0 mph 91 % 0.0 in
12:58 6.6 °F 6.0 °F 1012.1 in South 9.7 mph 13.0 mph 91 % 0.0 in
13:00 6.7 °F 6.0 °F 1012.1 in SSW 4.7 mph 13.0 mph 91 % 0.0 in
13:05 6.7 °F 6.0 °F 1012.1 in South 11.9 mph 13.0 mph 91 % 0.0 in
13:07 6.7 °F 6.0 °F 1012.1 in SSW 6.1 mph 13.7 mph 92 % 0.0 in
13:12 6.7 °F 6.0 °F 1011.1 in South 8.7 mph 13.7 mph 92 % 0.0 in
13:15 6.7 °F 6.0 °F 1011.1 in SSW 9.3 mph 14.0 mph 92 % 0.0 in
13:19 6.8 °F 6.0 °F 1011.1 in SSW 7.6 mph 14.8 mph 93 % 0.0 in
13:24 6.8 °F 6.0 °F 1011.1 in SSW 10.1 mph 16.6 mph 93 % 0.0 in
13:25 6.8 °F 6.0 °F 1011.1 in South 1.8 mph 16.6 mph 93 % 0.0 in
13:30 6.8 °F 6.0 °F 1011.1 in SSW 9.3 mph 16.6 mph 93 % 0.0 in
13:33 6.8 °F 6.0 °F 1011.1 in South 5.0 mph 12.6 mph 93 % 0.0 in
13:38 6.9 °F 6.0 °F 1011.1 in South 8.7 mph 12.2 mph 94 % 0.0 in
13:41 7.0 °F 6.0 °F 1011.1 in Calm   13.0 mph 93 % 0.0 in
13:46 7.0 °F 6.0 °F 1011.1 in SSW 9.7 mph 13.0 mph 94 % 0.0 in
13:47 7.0 °F 6.0 °F 1011.1 in South 10.1 mph 13.0 mph 94 % 0.0 in
13:52 7.0 °F 6.0 °F 1011.1 in WSW 7.9 mph 13.7 mph 94 % 0.0 in
13:54 7.0 °F 6.0 °F 1011.1 in SSW 12.6 mph 13.7 mph 94 % 0.0 in
13:59 7.1 °F 6.0 °F 1011.1 in SSW 7.9 mph 14.0 mph 94 % 0.0 in
14:03 7.1 °F 6.0 °F 1011.1 in SSW 9.7 mph 14.0 mph 94 % 0.0 in
14:05 7.1 °F 6.0 °F 1011.1 in SSW 16.3 mph 19.5 mph 94 % 0.0 in
14:10 7.1 °F 6.0 °F 1011.1 in SW 7.9 mph 19.5 mph 94 % 0.0 in
14:13 7.1 °F 6.0 °F 1010.0 in WSW 11.9 mph 19.5 mph 94 % 0.0 in
14:20 7.1 °F 6.0 °F 1010.0 in South 9.0 mph 16.9 mph 95 % 0.0 in
14:28 7.0 °F 6.0 °F 1009.0 in SW 9.7 mph 14.0 mph 95 % 0.0 in
14:30 7.0 °F 6.0 °F 1009.0 in SSW 5.5 mph 12.2 mph 95 % 0.0 in
14:35 7.0 °F 7.0 °F 1009.0 in SSW 10.5 mph 12.6 mph 96 % 0.0 in
14:40 7.0 °F 7.0 °F 1009.0 in SSW 6.1 mph 12.6 mph 96 % 0.0 in
14:45 7.0 °F 7.0 °F 1008.0 in SSW 5.0 mph 10.1 mph 96 % 0.0 in
14:49 7.0 °F 7.0 °F 1008.0 in South 7.9 mph 11.6 mph 96 % 0.0 in
14:53 6.9 °F 7.0 °F 1008.0 in SSW 9.3 mph 12.6 mph 97 % 0.0 in
14:58 6.9 °F 7.0 °F 1009.0 in South 4.3 mph 12.6 mph 97 % 0.0 in
14:59 6.9 °F 7.0 °F 1009.0 in South 7.6 mph 12.6 mph 97 % 0.0 in
15:03 6.9 °F 7.0 °F 1009.0 in SSW 9.0 mph 13.0 mph 97 % 0.0 in
15:05 6.9 °F 7.0 °F 1009.0 in South 5.5 mph 13.0 mph 97 % 0.0 in
15:10 6.9 °F 7.0 °F 1009.0 in South 17.7 mph 17.7 mph 98 % 0.0 in
15:12 6.9 °F 7.0 °F 1009.0 in SSE 14.0 mph 17.7 mph 98 % 0.3 in
15:17 6.9 °F 7.0 °F 1009.0 in South 8.7 mph 17.7 mph 98 % 0.3 in
15:20 6.9 °F 7.0 °F 1009.0 in SSW 14.0 mph 17.7 mph 98 % 0.3 in
15:23 6.9 °F 7.0 °F 1009.0 in SSW 15.8 mph 16.9 mph 98 % 0.3 in
15:25 6.9 °F 7.0 °F 1009.0 in SSW 10.1 mph 16.9 mph 98 % 0.3 in
15:31 6.9 °F 7.0 °F 1009.0 in SSE 9.0 mph 20.1 mph 98 % 0.3 in
15:33 6.9 °F 7.0 °F 1009.0 in South 13.0 mph 20.1 mph 98 % 0.3 in
15:34 6.9 °F 7.0 °F 1009.0 in SSW 11.6 mph 20.1 mph 98 % 0.3 in
15:39 6.8 °F 7.0 °F 1009.0 in South 11.1 mph 20.1 mph 98 % 0.3 in
15:40 6.8 °F 7.0 °F 1009.0 in South 14.0 mph 17.7 mph 98 % 0.3 in
15:43 6.8 °F 7.0 °F 1008.0 in South 9.0 mph 17.7 mph 98 % 0.3 in
15:48 6.8 °F 7.0 °F 1008.0 in SSE 9.7 mph 17.7 mph 98 % 0.3 in
15:53 6.8 °F 7.0 °F 1008.0 in South 14.0 mph 16.6 mph 98 % 0.3 in
15:54 6.8 °F 7.0 °F 1008.0 in SSE 11.9 mph 16.6 mph 98 % 0.3 in
15:59 6.8 °F 7.0 °F 1007.0 in SSE 13.7 mph 16.6 mph 98 % 0.5 in
16:04 6.8 °F 7.0 °F 1007.0 in South 10.1 mph 18.3 mph 98 % 0.5 in
16:10 6.8 °F 7.0 °F 1007.0 in SSW 15.8 mph 20.1 mph 98 % 0.5 in
16:12 6.8 °F 7.0 °F 1007.0 in South 8.7 mph 20.1 mph 98 % 0.3 in
16:17 6.8 °F 7.0 °F 1007.0 in South 18.3 mph 23.3 mph 98 % 0.3 in
16:22 6.8 °F 7.0 °F 1007.0 in South 9.7 mph 24.5 mph 98 % 0.3 in
16:23 6.8 °F 7.0 °F 1007.0 in South 13.7 mph 24.5 mph 98 % 0.3 in
16:28 6.8 °F 7.0 °F 1006.0 in South 12.6 mph 21.6 mph 98 % 0.3 in
16:30 6.8 °F 7.0 °F 1006.0 in South 12.6 mph 21.6 mph 98 % 0.3 in
16:35 6.8 °F 7.0 °F 1006.0 in SSW 17.2 mph 18.0 mph 98 % 0.5 in
16:36 6.8 °F 7.0 °F 1006.0 in South 9.7 mph 18.0 mph 98 % 0.5 in
16:41 6.9 °F 7.0 °F 1007.0 in South 16.9 mph 20.1 mph 98 % 0.5 in
16:45 6.9 °F 7.0 °F 1007.0 in SSW 12.6 mph 21.2 mph 98 % 0.5 in
16:50 7.0 °F 7.0 °F 1007.0 in South 19.5 mph 21.2 mph 98 % 0.5 in
16:55 7.0 °F 7.0 °F 1007.0 in South 14.0 mph 24.8 mph 98 % 0.5 in
16:56 7.0 °F 7.0 °F 1007.0 in South 14.0 mph 24.8 mph 98 % 0.3 in
17:01 7.0 °F 7.0 °F 1007.0 in SSE 19.5 mph 24.8 mph 98 % 0.3 in
17:06 7.1 °F 7.0 °F 1007.0 in South 10.1 mph 20.9 mph 98 % 0.3 in
17:09 7.1 °F 7.0 °F 1007.0 in SSW 17.7 mph 21.9 mph 98 % 0.3 in
17:14 7.1 °F 7.0 °F 1006.0 in SSW 19.1 mph 22.7 mph 98 % 0.3 in
17:17 7.2 °F 7.0 °F 1006.0 in South 17.7 mph 22.7 mph 98 % 0.3 in
17:21 7.2 °F 7.0 °F 1006.0 in SSW 26.2 mph 26.2 mph 98 % 0.3 in
17:23 7.2 °F 7.0 °F 1006.0 in SSW 25.3 mph 26.2 mph 98 % 0.3 in
17:28 7.2 °F 7.0 °F 1006.0 in South 18.0 mph 26.2 mph 98 % 0.3 in
17:29 7.2 °F 7.0 °F 1006.0 in South 19.1 mph 26.2 mph 98 % 0.3 in
17:34 7.3 °F 7.0 °F 1006.0 in SSW 19.8 mph 37.8 mph 98 % 0.0 in
17:37 7.3 °F 7.0 °F 1006.0 in South 16.6 mph 37.8 mph 98 % 0.0 in
17:40 7.3 °F 7.0 °F 1005.0 in South 16.6 mph 37.8 mph 98 % 0.0 in
17:46 7.3 °F 7.0 °F 1005.0 in South 23.0 mph 23.8 mph 98 % 0.0 in
17:51 7.3 °F 7.0 °F 1005.0 in South 28.5 mph 28.5 mph 98 % 0.3 in
17:52 7.3 °F 7.0 °F 1005.0 in WSW 16.9 mph 28.5 mph 98 % 0.3 in
17:57 7.4 °F 7.0 °F 1005.0 in SSW 11.9 mph 28.5 mph 98 % 0.3 in
18:02 7.4 °F 7.0 °F 1005.0 in SSW 16.9 mph 23.8 mph 98 % 0.3 in
18:03 7.4 °F 7.0 °F 1005.0 in SSW 15.8 mph 23.8 mph 98 % 0.3 in
18:13 7.5 °F 8.0 °F 1005.0 in SSW 10.5 mph 27.4 mph 98 % 0.3 in
18:18 7.6 °F 8.0 °F 1005.0 in SSW 16.3 mph 28.5 mph 98 % 0.3 in
18:22 7.6 °F 8.0 °F 1005.0 in SSW 17.2 mph 28.5 mph 98 % 0.3 in
18:27 7.7 °F 8.0 °F 1005.0 in SSW 13.0 mph 25.3 mph 98 % 0.3 in
18:28 7.7 °F 8.0 °F 1005.0 in SW 13.0 mph 25.3 mph 98 % 0.3 in
18:33 7.8 °F 8.0 °F 1005.0 in SSW 17.7 mph 25.3 mph 98 % 0.3 in
18:34 7.8 °F 8.0 °F 1005.0 in SW 12.2 mph 25.3 mph 98 % 0.3 in
18:39 7.8 °F 8.0 °F 1005.0 in SSW 10.1 mph 19.8 mph 98 % 0.3 in
18:42 7.9 °F 8.0 °F 1005.0 in SSW 19.5 mph 21.2 mph 98 % 0.3 in
18:47 7.9 °F 8.0 °F 1005.0 in SW 19.5 mph 21.2 mph 98 % 0.3 in
18:49 7.9 °F 8.0 °F 1005.0 in SW 10.5 mph 21.2 mph 98 % 0.3 in
18:52 8.0 °F 8.0 °F 1005.0 in SSW 12.6 mph 19.5 mph 98 % 0.0 in
19:00 8.1 °F 8.0 °F 1005.0 in SSW 11.9 mph 20.9 mph 98 % 0.0 in
19:02 8.1 °F 8.0 °F 1005.0 in SW 9.7 mph 20.9 mph 98 % 0.0 in
19:06 8.1 °F 8.0 °F 1005.0 in SSW 7.9 mph 20.9 mph 98 % 0.0 in
19:11 8.2 °F 8.0 °F 1003.9 in South 14.0 mph 17.2 mph 98 % 0.0 in
19:16 8.3 °F 9.0 °F 1003.9 in SW 15.4 mph 17.2 mph 98 % 0.0 in
19:17 8.3 °F 9.0 °F 1003.9 in SW 13.7 mph 17.2 mph 98 % 0.0 in
19:19 8.3 °F 9.0 °F 1003.9 in SSW 14.0 mph 17.2 mph 98 % 0.0 in
19:24 8.4 °F 9.0 °F 1003.9 in SSW 6.9 mph 17.7 mph 98 % 0.0 in
19:25 8.4 °F 9.0 °F 1003.9 in SSW 9.3 mph 17.7 mph 98 % 0.0 in
19:30 8.4 °F 9.0 °F 1003.9 in SW 9.7 mph 17.7 mph 98 % 0.0 in
19:32 8.4 °F 9.0 °F 1003.9 in SSW 9.7 mph 13.7 mph 98 % 0.0 in
19:37 8.5 °F 9.0 °F 1003.9 in SSW 7.9 mph 12.6 mph 98 % 0.0 in
19:43 8.5 °F 9.0 °F 1002.9 in SSW 10.1 mph 12.2 mph 98 % 0.0 in
19:50 8.6 °F 9.0 °F 1002.9 in SSW 8.7 mph 15.4 mph 98 % 0.0 in
19:54 8.7 °F 9.0 °F 1002.9 in SSW 6.9 mph 15.4 mph 98 % 0.0 in
19:59 8.7 °F 9.0 °F 1002.9 in SSW 5.0 mph 12.2 mph 98 % 0.0 in
20:05 8.8 °F 9.0 °F 1002.9 in SSW 9.0 mph 11.9 mph 98 % 0.0 in
20:06 8.8 °F 9.0 °F 1002.9 in SSW 10.1 mph 13.0 mph 98 % 0.0 in
20:12 8.9 °F 9.0 °F 1002.9 in SW 8.7 mph 14.0 mph 98 % 0.0 in
20:17 9.0 °F 9.0 °F 1002.9 in SW 10.5 mph 14.0 mph 98 % 0.0 in
20:20 9.1 °F 9.0 °F 1002.9 in SW 9.7 mph 14.0 mph 98 % 0.0 in
20:25 9.2 °F 9.0 °F 1002.9 in WSW 9.0 mph 12.2 mph 98 % 0.0 in
20:26 9.2 °F 9.0 °F 1002.9 in SSW 7.9 mph 12.2 mph 98 % 0.0 in
20:31 9.3 °F 9.0 °F 1002.9 in SSW 9.0 mph 14.8 mph 98 % 0.0 in
20:36 9.4 °F 9.0 °F 1002.9 in SSW 13.7 mph 14.8 mph 98 % 0.0 in
20:41 9.5 °F 10.0 °F 1002.9 in South 12.6 mph 13.7 mph 98 % 0.0 in
20:43 9.5 °F 10.0 °F 1002.9 in SW 9.3 mph 13.7 mph 98 % 0.0 in
20:46 9.6 °F 10.0 °F 1002.9 in WSW 10.1 mph 13.7 mph 98 % 0.0 in
20:48 9.7 °F 10.0 °F 1002.9 in SW 9.0 mph 14.0 mph 98 % 0.0 in
20:56 9.8 °F 10.0 °F 1002.9 in WSW 6.4 mph 14.0 mph 98 % 0.0 in
21:01 10.0 °F 10.0 °F 1002.9 in SW 11.6 mph 13.7 mph 98 % 0.0 in
21:04 10.0 °F 10.0 °F 1002.9 in SW 13.7 mph 14.3 mph 98 % 0.0 in
21:09 10.2 °F 10.0 °F 1002.9 in SSW 10.1 mph 16.9 mph 98 % 0.0 in
21:10 10.2 °F 10.0 °F 1002.9 in SW 9.3 mph 16.9 mph 98 % 0.0 in
21:14 10.3 °F 10.0 °F 1001.9 in WSW 16.9 mph 16.9 mph 98 % 0.0 in
21:19 10.4 °F 10.0 °F 1001.9 in SW 9.7 mph 23.3 mph 98 % 0.0 in
21:20 10.4 °F 10.0 °F 1001.9 in WSW 12.2 mph 23.3 mph 98 % 0.0 in
21:25 10.4 °F 10.0 °F 1001.9 in SW 12.2 mph 17.2 mph 98 % 0.0 in
21:26 10.4 °F 10.0 °F 1001.9 in WSW 9.3 mph 17.2 mph 98 % 0.0 in
21:36 10.4 °F 10.0 °F 1001.9 in SSW 12.6 mph 17.7 mph 98 % 0.0 in
21:37 10.5 °F 11.0 °F 1001.9 in WSW 17.7 mph 17.7 mph 98 % 0.0 in
21:42 10.5 °F 11.0 °F 1000.9 in WSW 13.0 mph 19.5 mph 98 % 0.0 in
21:47 10.5 °F 11.0 °F 1000.9 in WSW 17.7 mph 19.5 mph 98 % 0.0 in
21:53 10.6 °F 11.0 °F 1000.9 in SW 15.8 mph 21.6 mph 98 % 0.0 in
21:54 10.6 °F 11.0 °F 1000.9 in SSW 17.2 mph 21.6 mph 98 % 0.0 in
21:59 10.7 °F 11.0 °F 1001.9 in SW 12.6 mph 21.6 mph 98 % 0.0 in
22:04 10.7 °F 11.0 °F 1001.9 in WSW 20.9 mph 25.6 mph 98 % 0.0 in
22:06 10.7 °F 11.0 °F 1001.9 in WSW 13.7 mph 25.6 mph 98 % 0.0 in
22:11 10.8 °F 11.0 °F 1000.9 in SW 12.6 mph 28.5 mph 98 % 0.0 in
22:12 10.8 °F 11.0 °F 1000.9 in SSW 18.0 mph 28.5 mph 98 % 0.0 in
22:17 10.9 °F 11.0 °F 1000.9 in WSW 20.1 mph 28.5 mph 98 % 0.0 in
22:22 10.9 °F 11.0 °F 1000.9 in WSW 19.8 mph 31.4 mph 98 % 0.0 in
22:25 11.0 °F 11.0 °F 1000.9 in WSW 14.0 mph 31.4 mph 98 % 0.0 in
22:30 11.0 °F 11.0 °F 1000.9 in SSW 20.6 mph 21.9 mph 98 % 0.0 in
22:33 11.0 °F 11.0 °F 1000.9 in WSW 14.0 mph 21.9 mph 98 % 0.0 in
22:42 11.1 °F 11.0 °F 999.9 in WSW 17.2 mph 24.5 mph 98 % 0.0 in
22:48 11.1 °F 11.0 °F 999.9 in SSW 16.6 mph 23.3 mph 98 % 0.0 in
22:54 11.1 °F 11.0 °F 999.9 in SSW 20.1 mph 23.3 mph 97 % 0.0 in
22:55 11.1 °F 11.0 °F 999.9 in SSW 16.6 mph 23.3 mph 97 % 0.0 in
22:59 11.1 °F 11.0 °F 997.9 in SSW 15.8 mph 23.8 mph 97 % 0.0 in
23:04 11.1 °F 11.0 °F 997.9 in SSW 17.2 mph 27.0 mph 97 % 0.0 in
23:06 11.1 °F 11.0 °F 997.9 in SW 20.6 mph 27.0 mph 97 % 0.0 in
23:10 11.1 °F 11.0 °F 997.9 in SW 20.9 mph 27.0 mph 96 % 0.0 in
23:12 11.1 °F 11.0 °F 998.9 in SW 13.0 mph 27.0 mph 96 % 0.0 in
23:16 11.0 °F 11.0 °F 998.9 in WSW 16.9 mph 21.6 mph 96 % 0.0 in
23:19 11.0 °F 11.0 °F 998.9 in SW 13.0 mph 25.3 mph 96 % 0.0 in
23:24 11.0 °F 11.0 °F 998.9 in SW 16.6 mph 25.3 mph 96 % 0.0 in
23:31 11.0 °F 10.0 °F 997.9 in SW 13.0 mph 24.8 mph 95 % 0.0 in
23:38 11.1 °F 10.0 °F 997.9 in SSW 14.3 mph 23.8 mph 95 % 0.0 in
23:43 11.0 °F 10.0 °F 997.9 in SSW 11.9 mph 23.8 mph 95 % 0.0 in
23:49 10.9 °F 11.0 °F 997.9 in SSW 9.0 mph 19.8 mph 96 % 0.0 in
23:50 10.9 °F 11.0 °F 997.9 in SSW 7.9 mph 19.8 mph 96 % 0.0 in
23:55 10.9 °F 11.0 °F 997.9 in SSW 10.5 mph 21.2 mph 96 % 0.0 in
23:58 10.9 °F 11.0 °F 996.2 in South 12.2 mph 21.2 mph 96 % 0.0 in
Le Gheer Warneton
Courtoisie de Weather Underground - 2.75 mb

Mise a jour : 24/02/2018 15:18:11
Généré par Cumulus 1.9.4 (1099)